[[{"header":{"parameterUnit":"m.s-1","parameterCategory":1,"la1":30.2991,"la2":30.254,"lo1":-89.0895,"lo2":-89.0444,"dy":0.0017,"dx":0.0017,"nx":28,"ny":28,"refTime":"2025-11-26T09:00:00:Z","depth":0,"parameterNumber":2,"parameterNumberName":"U-component_of_WINDS"},"data":[0,0,0,0,0,0,0,0,0,0,0,0,0,0,0,0,0,0,0,0,0,0,0,0,0,0,0,0,0,0,0,0,0,0,0,0,0,0,0,0,0,0,0,0,0,0,0,0,0,0,0,0,0,0,0,0,0,0,0.2059,0.2059,0,0.2022,0.2022,0.2021,0.2033,0.2033,0.2034,0.2035,0.1994,0.1993,0.1991,0,0,0,0,0,0,0,0,0,0,0,0,0,0.2139,0.2138,0.2059,0.2059,0.2058,0.2022,0.2022,0.2021,0.2032,0.2033,0.2034,0.2035,0.1995,0.1993,0.1991,0,0,0,0,0,0,0,0,0,0,0,0,0,0.2103,0.2137,0.2059,0.206,0.2059,0.2022,0.2022,0.2021,0.2032,0.2033,0.2035,0.2036,0.1996,0.1993,0.199,0.195,0,0,0.1982,0.1981,0,0,0,0,0,0,0,0,0.2105,0.21,0.206,0.206,0.2059,0.2033,0.2035,0.1997,0.2032,0.2042,0.2035,0.2036,0.2006,0.2003,0.1993,0.1948,0.1946,0.1982,0.198,0.1979,0.1978,0,0,0,0,0,0,0,0.2108,0.2102,0.2044,0.206,0.2059,0.2061,0.2058,0.2028,0.2018,0.2042,0.2042,0.2038,0.2006,0.1996,0.1992,0.1946,0.1982,0.198,0.1978,0.1977,0.1866,0.1865,0,0,0,0,0,0,0.2111,0.2104,0.2046,0.2043,0.2086,0.2059,0.2055,0.204,0.2018,0.2016,0.2037,0.2039,0.2,0.1995,0.1991,0.1942,0.1979,0.1977,0.1975,0.1868,0.1866,0.1865,0,0,0,0,0,0,0.2113,0.2106,0.2047,0.2074,0.2067,0.2056,0.204,0.2039,0.2028,0.2015,0.2013,0.2028,0.2,0.1995,0.196,0.1941,0.1975,0.1973,0.1869,0.1867,0.1865,0.1844,0,0,0,0,0,0,0.2115,0.2106,0.2091,0.2074,0.2065,0.2017,0.2039,0.2037,0.2024,0.2026,0.2006,0.2004,0.2001,0.1964,0.1958,0.1938,0.1971,0.1871,0.1868,0.1866,0.1846,0.1841,0.1837,0,0,0,0,0,0.2118,0.2085,0.209,0.2083,0.2046,0.2016,0.2011,0.2009,0.2022,0.2007,0.1998,0.2005,0.1945,0.1961,0.1953,0.1932,0.1872,0.1869,0.1866,0.1848,0.1842,0.1837,0,0,0,0,0,0,0.2099,0.2083,0.2088,0.2049,0.2034,0.2018,0.1998,0.2003,0.1983,0.1986,0.1984,0.1979,0.1944,0.1935,0.1953,0.1892,0.191,0.1906,0.1899,0.1893,0.1889,0.1891,0.1968,0,0,0,0,0,0.2091,0.2069,0.2056,0.2023,0.2015,0.2008,0.1995,0.1995,0.1979,0.1972,0.1962,0.1945,0.1923,0.1908,0.1886,0.1846,0.1842,0.1828,0.1823,0.182,0.1815,0.1793,0.1787,0.1855,0.1855,0.1855,0,0,0.2073,0.2061,0.2047,0.2019,0.2007,0.1984,0.2002,0.1977,0.1959,0.1968,0.1935,0.1927,0.1909,0.1871,0.1854,0.1863,0.1796,0.1816,0.1813,0.181,0.179,0.1783,0.1777,0.1853,0.1854,0.1854,0,0,0.2028,0.2017,0.1989,0.1977,0.196,0.1956,0.1949,0.1933,0.1928,0.1895,0.1902,0.1881,0.1842,0.1829,0.1817,0.177,0.1775,0.1763,0.1739,0.1718,0.1712,0.1707,0.169,0.1684,0.1759,0.1759,0.1759,0,0.2007,0.1972,0.1973,0.1947,0.1935,0.1944,0.1915,0.1903,0.1879,0.187,0.1881,0.1833,0.1822,0.1781,0.177,0.176,0.1752,0.1764,0.1713,0.1708,0.1704,0.1687,0.1681,0.1758,0.1758,0.1758,0.1758,0,0.1948,0.1924,0.1903,0.1881,0.1866,0.1839,0.1835,0.182,0.1823,0.1817,0.1784,0.1771,0.1747,0.1738,0.1739,0.1698,0.1704,0.1714,0.1732,0.1696,0.168,0.1674,0.1756,0.1756,0.1757,0.1757,0,0,0.1887,0.1868,0.186,0.185,0.1833,0.1814,0.1788,0.1766,0.1753,0.1737,0.1714,0.1683,0.1692,0.1679,0.1679,0.1661,0.1624,0.1673,0.1672,0.1663,0.1577,0.1569,0.1561,0.1628,0.1627,0.1626,0.1578,0,0.184,0.1793,0.1794,0.1751,0.1729,0.1739,0.1716,0.1703,0.1698,0.1678,0.1673,0.165,0.1665,0.1657,0.1639,0.1632,0.1606,0.1636,0.1606,0.1605,0.1608,0.1553,0.1544,0.1499,0.1572,0.1571,0.1571,0,0.1777,0.1761,0.1716,0.1703,0.1693,0.1673,0.1653,0.1635,0.162,0.1618,0.1605,0.1608,0.1581,0.1602,0.1565,0.1585,0.1573,0.1568,0.1566,0.1562,0.1584,0.1546,0.1485,0.1478,0.1561,0.1562,0.1562,0,0.1736,0.1703,0.1672,0.1663,0.1648,0.1633,0.1626,0.1613,0.16,0.1583,0.1574,0.1554,0.1543,0.1528,0.1526,0.1541,0.1488,0.1508,0.1485,0.1485,0.1472,0.1472,0.1407,0.1467,0.1467,0.1467,0.1467,0,0.1682,0.1654,0.1653,0.1634,0.1603,0.1605,0.1574,0.1568,0.1557,0.1536,0.1544,0.1524,0.1524,0.1504,0.1503,0.1472,0.1467,0.1464,0.1464,0.1463,0.1463,0.1454,0.1456,0.1465,0.1466,0.1466,0.1466,0,0.163,0.1628,0.1595,0.1584,0.158,0.1558,0.1548,0.153,0.1527,0.1501,0.1495,0.149,0.1467,0.1465,0.1438,0.1437,0.14,0.1404,0.1405,0.1405,0.1381,0.1383,0.1306,0.1296,0.1364,0.1363,0.1363,0,0.1595,0.1573,0.156,0.1548,0.154,0.1519,0.1507,0.1508,0.1495,0.1478,0.1462,0.144,0.1423,0.1386,0.138,0.136,0.1362,0.1337,0.1359,0.1359,0.1361,0.1361,0.1359,0.1332,0.1331,0.133,0.133,0,0.1531,0.1532,0.1514,0.1496,0.1481,0.1466,0.1453,0.1442,0.1442,0.1427,0.1404,0.1391,0.1365,0.1343,0.1324,0.1317,0.1323,0.1324,0.1317,0.1314,0.1315,0.1314,0.1391,0.1325,0.1325,0.1326,0.1326,0.1326,0.1486,0.1467,0.1456,0.1435,0.1426,0.1414,0.1396,0.1392,0.1373,0.1352,0.1355,0.133,0.1318,0.1293,0.1284,0.1265,0.1273,0.1263,0.1261,0.1258,0.1255,0.132,0.1261,0.1261,0.1262,0.1262,0.1262,0,0.1422,0.1416,0.1397,0.1379,0.1363,0.1373,0.1359,0.1344,0.1323,0.1311,0.1295,0.1269,0.1249,0.1242,0.1222,0.1208,0.1211,0.1203,0.1203,0.1201,0.1249,0.1256,0.1201,0.1201,0.1201,0.1201,0.1201,0.1201,0.1387,0.1356,0.1356,0.1321,0.1315,0.1291,0.1283,0.1272,0.1262,0.1234,0.1217,0.1214,0.1204,0.1184,0.1166,0.1165,0.1157,0.1147,0.1147,0.1191,0.1197,0.1203,0.121,0.1146,0.1146,0.11,0.1099,0.1099]},{"header":{"parameterUnit":"m.s-1","parameterCategory":1,"la1":30.2991,"la2":30.254,"lo1":-89.0895,"lo2":-89.0444,"dy":0.0017,"dx":0.0017,"nx":28,"ny":28,"refTime":"2025-11-26T09:00:00:Z","depth":0,"parameterNumber":3,"parameterNumberName":"V-component_of_WINDS"},"data":[0,0,0,0,0,0,0,0,0,0,0,0,0,0,0,0,0,0,0,0,0,0,0,0,0,0,0,0,0,0,0,0,0,0,0,0,0,0,0,0,0,0,0,0,0,0,0,0,0,0,0,0,0,0,0,0,0,0,-6.9038,-6.904,0,-6.9192,-6.9193,-6.9195,-6.9096,-6.9092,-6.9087,-6.9083,-6.9231,-6.9239,-6.9247,0,0,0,0,0,0,0,0,0,0,0,0,0,-6.8653,-6.866,-6.9038,-6.904,-6.9042,-6.9191,-6.9193,-6.9195,-6.9097,-6.9092,-6.9086,-6.9081,-6.9229,-6.9238,-6.9248,0,0,0,0,0,0,0,0,0,0,0,0,0,-6.8814,-6.8663,-6.9038,-6.9011,-6.901,-6.9191,-6.9193,-6.9196,-6.9098,-6.9091,-6.9085,-6.9078,-6.9225,-6.9237,-6.9249,-6.9462,0,0,-6.9287,-6.9292,0,0,0,0,0,0,0,0,-6.8805,-6.8829,-6.9013,-6.9013,-6.9013,-6.9118,-6.9112,-6.9285,-6.91,-6.9065,-6.9083,-6.9075,-6.9199,-6.9213,-6.9256,-6.9469,-6.9475,-6.9288,-6.9296,-6.9301,-6.9304,0,0,0,0,0,0,0,-6.8794,-6.8821,-6.9098,-6.9016,-6.9016,-6.8989,-6.9004,-6.9144,-6.9168,-6.9067,-6.906,-6.908,-6.9197,-6.9244,-6.9259,-6.9477,-6.9288,-6.9299,-6.9306,-6.9311,-6.9872,-6.9879,0,0,0,0,0,0,-6.8786,-6.8813,-6.9094,-6.9103,-6.889,-6.9002,-6.9019,-6.9091,-6.9166,-6.9171,-6.9086,-6.9075,-6.9227,-6.9245,-6.9264,-6.9518,-6.9301,-6.9312,-6.9319,-6.9865,-6.9874,-6.9882,0,0,0,0,0,0,-6.8778,-6.8812,-6.9087,-6.8956,-6.8989,-6.9016,-6.9097,-6.9098,-6.9145,-6.918,-6.9183,-6.9131,-6.9222,-6.9246,-6.9414,-6.9522,-6.9318,-6.9329,-6.9856,-6.9868,-6.9878,-7.0028,0,0,0,0,0,0,-6.8768,-6.881,-6.8893,-6.8959,-6.8997,-6.9238,-6.9104,-6.9106,-6.9168,-6.9155,-6.9223,-6.9228,-6.9219,-6.9396,-6.9426,-6.9535,-6.9339,-6.9846,-6.9861,-6.9874,-7.0014,-7.0043,-7.0068,0,0,0,0,0,-6.8754,-6.8927,-6.8898,-6.8932,-6.9101,-6.9245,-6.9266,-6.9254,-6.9177,-6.9259,-6.9282,-6.9226,-6.9505,-6.9414,-6.9447,-6.9561,-6.9839,-6.9857,-6.9873,-7.0001,-7.0037,-7.0068,0,0,0,0,0,0,-6.887,-6.8935,-6.8903,-6.9103,-6.917,-6.9228,-6.9332,-6.9293,-6.938,-6.9364,-6.9343,-6.936,-6.9535,-6.9564,-6.9462,-6.9771,-6.966,-6.9684,-6.9746,-6.978,-6.9807,-6.9796,-6.9349,0,0,0,0,0,-6.8919,-6.9033,-6.9083,-6.9254,-6.9289,-6.9305,-6.9367,-6.9353,-6.9419,-6.9446,-6.9481,-6.9545,-6.9647,-6.9715,-6.9811,-7.0017,-7.003,-7.0112,-7.0139,-7.0161,-7.0182,-7.0294,-7.033,-6.9938,-6.9938,-6.9937,0,0,-6.9021,-6.9071,-6.9143,-6.9279,-6.9328,-6.9444,-6.9329,-6.9456,-6.9542,-6.9464,-6.9626,-6.9654,-6.9724,-6.9912,-6.9997,-6.9942,-7.0294,-7.0183,-7.02,-7.021,-7.0315,-7.0352,-7.0385,-6.9949,-6.9947,-6.9945,0,0,-6.9267,-6.9316,-6.9465,-6.9518,-6.9596,-6.9605,-6.9641,-6.9706,-6.9723,-6.9885,-6.983,-6.9929,-7.0106,-7.0159,-7.0208,-7.0475,-7.0426,-7.0506,-7.0649,-7.0758,-7.0789,-7.0816,-7.0911,-7.0946,-7.0527,-7.0528,-7.0528,0,-6.9383,-6.9558,-6.9545,-6.9678,-6.9739,-6.9677,-6.9827,-6.9877,-6.9982,-7.0024,-6.9961,-7.0183,-7.0226,-7.0426,-7.0491,-7.0533,-7.0572,-7.0499,-7.0786,-7.0813,-7.0838,-7.0929,-7.0965,-7.0537,-7.0536,-7.0535,-7.0534,0,-6.9697,-6.982,-6.993,-7.0036,-7.0109,-7.0249,-7.0255,-7.033,-7.0309,-7.0325,-7.049,-7.054,-7.0645,-7.0691,-7.0671,-7.0889,-7.0853,-7.0789,-7.0677,-7.0886,-7.097,-7.1005,-7.055,-7.0547,-7.0544,-7.0542,0,0,-7.0019,-7.0118,-7.0159,-7.0207,-7.0288,-7.0381,-7.0518,-7.0624,-7.0689,-7.0762,-7.0875,-7.1027,-7.0969,-7.1026,-7.101,-7.1106,-7.1314,-7.103,-7.1031,-7.1081,-7.1557,-7.1605,-7.1645,-7.1283,-7.1289,-7.1294,-7.1551,0,-7.027,-7.0513,-7.0505,-7.073,-7.0842,-7.0786,-7.0904,-7.0966,-7.0984,-7.108,-7.1098,-7.1206,-7.1121,-7.1156,-7.1247,-7.127,-7.1409,-7.1251,-7.1386,-7.1391,-7.1371,-7.169,-7.1741,-7.1981,-7.1584,-7.159,-7.1594,0,-7.0595,-7.0684,-7.0921,-7.0987,-7.1034,-7.1141,-7.1238,-7.1331,-7.1399,-7.1405,-7.147,-7.144,-7.1576,-7.1461,-7.1647,-7.154,-7.1594,-7.1613,-7.1622,-7.1634,-7.1505,-7.171,-7.2057,-7.2093,-7.1646,-7.1641,-7.1638,0,-7.0807,-7.0985,-7.115,-7.1192,-7.1274,-7.1351,-7.1387,-7.1449,-7.1513,-7.1597,-7.1638,-7.1735,-7.1789,-7.1863,-7.1859,-7.1776,-7.2049,-7.1933,-7.2056,-7.2057,-7.2116,-7.2113,-7.2476,-7.2151,-7.2151,-7.215,-7.2149,0,-7.1088,-7.1235,-7.1247,-7.1348,-7.1511,-7.15,-7.166,-7.1689,-7.1745,-7.1849,-7.1804,-7.1902,-7.1891,-7.1989,-7.1986,-7.2141,-7.2165,-7.2172,-7.217,-7.2177,-7.2176,-7.2213,-7.2196,-7.2159,-7.2157,-7.2156,-7.2154,0,-7.1352,-7.1366,-7.1543,-7.1606,-7.1625,-7.1743,-7.1795,-7.189,-7.1905,-7.2037,-7.2068,-7.209,-7.2203,-7.2207,-7.2335,-7.2333,-7.2523,-7.2501,-7.2501,-7.2497,-7.2621,-7.2609,-7.3021,-7.3074,-7.2714,-7.2717,-7.272,0,-7.1531,-7.1644,-7.172,-7.1789,-7.1831,-7.1941,-7.2008,-7.2001,-7.2071,-7.2158,-7.2243,-7.2352,-7.244,-7.2623,-7.2649,-7.2747,-7.2727,-7.2865,-7.2742,-7.2746,-7.273,-7.2724,-7.2735,-7.2889,-7.2893,-7.2896,-7.2899,0,-7.1847,-7.1849,-7.1948,-7.2051,-7.2133,-7.2212,-7.2285,-7.2343,-7.2344,-7.2425,-7.2542,-7.2611,-7.2744,-7.2853,-7.2949,-7.2983,-7.2942,-7.2938,-7.2971,-7.298,-7.2975,-7.298,-7.2567,-7.2928,-7.2925,-7.2923,-7.2921,-7.292,-7.2074,-7.2172,-7.2242,-7.2354,-7.241,-7.248,-7.2573,-7.26,-7.2699,-7.281,-7.2798,-7.2928,-7.2992,-7.3117,-7.316,-7.326,-7.3212,-7.3261,-7.3273,-7.3286,-7.3299,-7.296,-7.3277,-7.3276,-7.3275,-7.3274,-7.3274,0,-7.2388,-7.2431,-7.2535,-7.2641,-7.2729,-7.2685,-7.2764,-7.284,-7.2956,-7.3021,-7.3109,-7.3243,-7.3349,-7.3384,-7.3486,-7.3559,-7.3542,-7.3586,-7.358,-7.3589,-7.3336,-7.3297,-7.3598,-7.3598,-7.3598,-7.3598,-7.3598,-7.3597,-7.2562,-7.2726,-7.2736,-7.2926,-7.2966,-7.3096,-7.3145,-7.3209,-7.3261,-7.3414,-7.3503,-7.3526,-7.3579,-7.3684,-7.3779,-7.3786,-7.3825,-7.3877,-7.3876,-7.3639,-7.3607,-7.3576,-7.3539,-7.3886,-7.3886,-7.4121,-7.4123,-7.4125]}]]